Vertical_Velocity
-0 1 -1 -4 2 -8 1 13 -10 0 5 -3 -3 -4 -2 -5 1 4 -2 2 1 1 -4 -3 -4 -1 -1 0 -1 -7 -1 -2 1 -2 1 4 8 -6 -2 -4 0 2 -3 1 -1 4 -1 1 -0
-2 0 -1 -0 0 4 14 -4 -1 -1 -2 -3 -4 -4 -3 -1 -1 -5 -4 -2 -0 3 1 1 4 4 6 2 6 2 1 1 3 2 4 5 3 -3 -3 -2 2 1 -5 2 -0 2 1 -1 -3
-0 -0 1 1 -0 8 7 -5 -1 -2 -2 -5 -5 -2 -0 -2 -2 -4 -2 -2 -2 -1 4 -2 7 8 2 8 0 13 -1 1 -0 3 0 7 2 5 -2 -2 0 -0 -0 3 1 5 -5 -0 2
1 0 0 -1 10 -2 -1 2 -2 -1 -2 -3 -0 -2 -7 3 -1 -1 -6 -3 -3 5 0 -2 3 4 3 5 12 5 7 -4 1 5 1 5 2 6 -2 -3 2 3 -3 2 0 4 -3 -3 0
2 0 7 -0 2 -3 -2 -3 -2 0 1 1 -2 5 1 0 -2 -2 -5 -2 1 6 3 8 3 6 16 7 9 4 3 2 5 2 3 6 2 4 -2 1 -1 -0 -1 2 0 3 -2 1 -1
6 -1 1 0 3 -2 -3 -2 -1 -1 1 -2 -4 -0 1 -3 1 -3 -6 -2 2 5 24 -8 7 5 6 3 -0 3 -0 6 7 2 7 5 -7 9 -0 1 3 -2 2 -0 -2 3 -5 5 0
5 1 2 -0 -1 1 3 -3 -2 0 -2 4 -3 -3 -4 -0 0 -2 -3 -2 -0 3 -3 8 13 25 5 8 39 43 -1 -0 5 -2 9 5 -0 6 5 -1 -1 -2 1 0 -3 0 3 -1 -1
7 -0 2 -2 -3 13 -1 -5 -5 -0 7 -2 1 -1 10 -2 1 0 -5 1 -1 -1 1 -19 -20 -29 -41 37 13 15 18 2 2 1 -4 6 1 5 13 -2 1 -2 -4 -1 2 2 -3 -1 -0
8 1 3 2 -2 4 -5 -3 -2 -3 1 -7 -7 -2 -5 -2 -3 -3 -2 -4 2 2 -7 -0 -1 -15 -2 -35 -10 24 14 4 3 -1 1 7 0 10 12 -6 4 1 -7 -2 3 4 -0 -1 2
0 2 6 -4 5 -4 1 -2 6 -6 2 -2 -5 -5 -4 -1 2 -3 -1 -1 -2 2 16 -8 -11 -9 -6 -2 -4 25 12 18 7 -2 -3 3 2 4 10 -0 2 0 -2 1 5 5 -0 -3 2
-2 -6 11 -2 -1 0 1 -1 -5 -1 1 8 1 -3 -5 -1 0 -1 -1 4 5 6 8 -2 -1 3 8 -4 -6 47 49 -3 2 16 -14 16 3 4 8 2 -3 -1 -7 2 3 2 3 -2 1
-3 1 3 1 1 -1 -3 -2 -2 -4 7 -1 -0 -2 -2 1 -1 -1 -1 -3 1 10 6 13 -4 2 -0 -6 -7 -10 -6 -6 11 -8 9 8 2 8 5 2 -3 1 -4 2 4 1 -1 -0 -3
-3 4 1 4 -4 -2 -0 -3 -1 -0 1 -3 -1 -2 -2 0 -1 1 -5 -1 1 2 6 5 5 4 -4 -5 -3 -1 25 14 0 -2 22 -9 -3 2 7 3 -0 -0 -3 5 4 0 3 -4 1
8 -3 3 5 -4 -2 -4 6 -5 14 3 -3 -2 -3 -1 -1 -2 -1 -3 -2 -2 -2 -2 1 3 -0 -2 1 -1 2 13 27 4 4 -2 -17 15 1 10 7 -1 -1 4 3 2 1 1 2 -2
2 -3 1 0 0 -1 1 -5 -19 6 -1 -1 1 -3 -5 -1 -2 0 -3 -3 -2 -3 -2 -2 1 -1 -2 8 4 -1 15 28 8 5 -7 2 14 -26 7 6 2 -1 2 -0 2 -0 -1 3 -1
0 3 4 10 1 -4 5 -16 26 -2 -2 -5 -1 -2 -1 -3 -3 -1 -4 -3 -5 -2 1 0 1 -1 -4 4 -3 -0 10 2 -1 11 7 2 5 10 5 11 -2 3 2 -1 7 -1 -2 -3 2
-2 -2 3 21 0 4 -4 9 -6 0 -2 1 -5 -1 2 -5 -2 -2 -5 -4 -3 -2 0 -0 3 -1 -2 5 1 -4 3 16 -1 5 4 -2 2 1 3 12 0 3 3 2 1 -1 -3 2 2
-3 2 2 -3 6 -3 4 -6 6 -6 -3 1 -1 -1 -3 -1 -2 -2 -1 -4 -4 -3 -2 -3 -3 2 -2 -5 -4 -1 3 6 2 -1 -6 4 1 -21 -28 -2 -3 5 1 1 -1 3 -1 1 -2
12 4 2 13 5 -3 -5 -7 2 20 -0 -4 4 -4 -2 -0 -0 -3 -1 -1 -4 -2 -2 0 1 2 -3 5 -7 -1 1 -2 -3 -1 13 -17 -5 -3 0 -2 5 0 1 1 3 -0 -1 -1 1
5 3 -4 6 7 1 -1 -2 -5 8 3 -1 -1 0 0 -4 1 -4 -3 -0 -0 -2 0 -0 2 -0 35 -6 -3 -1 5 3 10 7 -0 -1 -0 3 1 -2 2 -0 -0 2 -0 5 1 4 -0
-2 -0 0 -1 8 -5 -0 -11 -10 0 -1 -3 -4 1 -1 0 -1 -3 -4 -3 -1 -1 -4 -2 -1 -2 4 -7 -2 -6 13 4 -5 -4 -2 -2 -7 1 2 5 -2 1 3 -1 3 -0 1 7 1
5 4 3 -1 5 2 -2 -16 3 -9 -2 6 -1 -7 2 -2 1 -1 -1 -2 -3 -1 -2 -4 -1 -5 -2 -14 -3 -9 -7 -7 -3 0 -1 1 -4 -3 1 4 5 4 -1 3 -7 1 -2 -8 3
-15 10 -1 5 -1 9 -5 11 -29 -2 -6 2 -2 2 -0 1 -1 1 -2 -2 -4 -5 -1 -2 -7 -4 -3 -0 -3 1 3 0 9 1 1 -5 -3 0 0 -5 8 1 -2 -3 -3 -5 -1 -1 3
6 -2 -2 0 3 12 -13 11 -11 6 3 4 1 5 -5 2 -3 0 -4 -4 -0 -2 -3 -3 -3 -4 -3 -2 -1 -3 -0 0 -4 -6 -1 1 -2 -5 -5 -14 6 1 -4 -2 0 1 -3 -1 -0
11 6 3 10 11 -10 1 9 -25 3 -2 2 -0 0 -3 4 -2 1 -4 -2 -4 -1 -2 -3 -3 -4 -3 -3 -2 -1 3 -2 -1 -7 -0 -2 -1 -6 -3 -1 -6 -3 -3 -0 -1 3 2 2 4
-4 -6 -5 -4 -1 -6 3 -7 -9 -0 -7 -2 -1 1 3 1 -0 -1 -2 -1 -1 -4 -2 -2 -2 -2 -2 -4 -4 -1 -2 1 -0 -3 -3 -5 -3 1 5 3 -0 3 0 3 5 -2 -1 4 0
-5 7 -22 11 -5 3 -2 -8 -16 -7 1 -2 6 1 1 0 -1 -1 -3 -8 -1 -1 -1 0 0 -1 -0 -2 -3 -2 -2 -0 4 -4 -7 -2 -1 -3 5 1 0 -7 -2 0 5 -5 -0 -11 4
-3 10 8 3 5 1 -2 -2 -6 -3 14 4 1 4 0 1 -1 -0 1 2 -12 -1 -1 -5 -5 -0 -0 -2 -2 -3 -3 -3 -2 -3 -0 -3 -0 -0 1 -2 -5 -2 2 1 1 -4 1 -3 -4
-7 1 1 10 -1 0 -0 -7 -17 5 3 8 6 4 9 4 3 -1 -1 3 3 -8 -2 3 -1 -2 -1 -0 -0 -1 -0 -2 -2 -3 -1 -1 2 1 -4 -4 -5 -5 -1 3 -2 -2 -0 -4 -2
2 3 6 10 0 -4 4 -12 -14 -2 6 -3 4 -1 5 3 5 6 4 4 2 1 -3 3 1 1 1 1 -1 0 -1 -1 -3 -2 -0 1 4 5 2 1 -2 -3 -3 -0 -3 -2 -1 -1 -0
Height
3139 3139 3137 3138 3145 3140 3137 3138 3136 3137 3137 3134 3133 3133 3134 3132 3133 3134 3127 3126 3126 3125 3124 3126 3129 3131 3133 3136 3139 3140 3141 3141 3145 3147 3149 3152 3155 3154 3155 3156 3159 3160 3162 3164 3165 3167 3169 3170 3171
3137 3137 3137 3137 3140 3135 3133 3136 3135 3135 3133 3133 3132 3132 3131 3130 3129 3127 3125 3125 3125 3124 3122 3123 3125 3126 3129 3132 3134 3137 3139 3141 3143 3145 3148 3149 3153 3155 3154 3156 3158 3160 3162 3165 3167 3168 3169 3171 3171
3136 3136 3138 3138 3136 3133 3133 3134 3134 3132 3132 3131 3131 3130 3128 3127 3125 3123 3122 3121 3121 3120 3120 3121 3122 3123 3127 3128 3132 3135 3137 3138 3141 3143 3145 3148 3151 3153 3154 3155 3158 3159 3162 3164 3166 3168 3169 3170 3171
3134 3135 3136 3135 3132 3133 3133 3132 3132 3131 3131 3130 3129 3127 3125 3123 3120 3118 3118 3117 3117 3116 3116 3117 3119 3122 3124 3126 3129 3133 3134 3137 3138 3141 3144 3148 3149 3152 3154 3155 3156 3159 3162 3164 3166 3167 3168 3170 3172
3132 3133 3135 3132 3131 3131 3129 3129 3129 3130 3129 3127 3126 3125 3122 3119 3116 3114 3114 3113 3113 3113 3114 3114 3115 3118 3122 3122 3124 3128 3130 3133 3137 3140 3143 3146 3148 3151 3153 3154 3157 3160 3161 3164 3166 3166 3169 3171 3173
3131 3131 3131 3128 3128 3128 3127 3128 3127 3127 3127 3125 3123 3121 3119 3116 3112 3111 3111 3109 3109 3110 3108 3111 3109 3112 3116 3117 3119 3123 3127 3131 3135 3137 3141 3145 3148 3150 3152 3153 3156 3159 3162 3164 3165 3166 3168 3171 3173
3129 3129 3127 3126 3126 3127 3126 3126 3125 3126 3125 3125 3121 3118 3116 3113 3109 3107 3107 3106 3105 3105 3104 3106 3101 3093 3108 3110 3110 3119 3122 3127 3132 3135 3139 3143 3147 3148 3151 3153 3156 3159 3161 3163 3165 3166 3168 3171 3173
3126 3126 3124 3123 3124 3124 3123 3123 3122 3122 3123 3121 3119 3117 3116 3111 3107 3106 3104 3103 3103 3101 3101 3101 3099 3099 3100 3102 3108 3115 3120 3123 3128 3132 3138 3141 3145 3148 3151 3154 3156 3158 3160 3162 3164 3166 3168 3172 3173
3122 3123 3120 3120 3121 3122 3120 3121 3119 3119 3118 3116 3115 3114 3111 3108 3104 3102 3100 3100 3099 3098 3096 3096 3097 3097 3094 3097 3103 3110 3114 3118 3125 3128 3135 3139 3142 3146 3149 3152 3155 3156 3160 3162 3164 3166 3168 3171 3173
3117 3118 3117 3117 3118 3118 3119 3118 3117 3116 3116 3113 3111 3109 3107 3104 3101 3098 3097 3095 3096 3094 3093 3094 3095 3096 3091 3093 3097 3105 3109 3110 3117 3124 3131 3136 3141 3144 3147 3151 3154 3156 3159 3161 3164 3166 3169 3171 3173
3112 3112 3115 3112 3114 3114 3115 3114 3113 3113 3112 3112 3109 3105 3103 3101 3098 3094 3092 3090 3088 3088 3090 3090 3092 3093 3091 3087 3094 3100 3104 3104 3111 3115 3126 3132 3137 3141 3145 3149 3150 3154 3157 3160 3163 3165 3168 3170 3173
3108 3109 3110 3110 3111 3110 3111 3111 3109 3109 3109 3107 3105 3102 3099 3097 3094 3091 3088 3082 3080 3082 3086 3088 3088 3090 3090 3089 3093 3096 3100 3102 3107 3111 3118 3125 3134 3140 3144 3148 3150 3153 3157 3160 3162 3166 3169 3171 3174
3102 3107 3106 3106 3106 3107 3107 3107 3106 3104 3104 3103 3101 3099 3096 3094 3091 3088 3083 3078 3075 3078 3082 3085 3086 3088 3088 3090 3091 3094 3096 3098 3103 3110 3114 3119 3132 3139 3143 3147 3149 3152 3156 3159 3162 3165 3168 3170 3173
3101 3102 3104 3103 3103 3103 3103 3105 3102 3102 3100 3099 3097 3095 3093 3091 3088 3085 3081 3076 3075 3076 3079 3082 3084 3086 3087 3088 3088 3088 3088 3093 3099 3107 3111 3118 3133 3138 3142 3146 3149 3151 3154 3158 3162 3165 3167 3169 3172
3097 3098 3099 3098 3099 3100 3100 3099 3096 3098 3097 3095 3094 3093 3091 3088 3086 3083 3081 3077 3075 3076 3078 3080 3082 3084 3085 3087 3088 3087 3087 3090 3097 3103 3111 3123 3131 3136 3140 3144 3147 3150 3154 3157 3160 3163 3166 3169 3171
3093 3095 3095 3095 3094 3096 3098 3093 3096 3094 3093 3093 3091 3090 3089 3086 3084 3082 3080 3078 3076 3076 3078 3079 3080 3082 3084 3085 3086 3087 3088 3093 3098 3102 3112 3121 3129 3135 3138 3143 3146 3150 3152 3156 3159 3162 3165 3167 3170
3089 3088 3090 3092 3089 3091 3092 3091 3091 3091 3090 3090 3089 3087 3086 3085 3082 3081 3079 3078 3077 3076 3076 3077 3078 3081 3082 3082 3084 3086 3089 3093 3095 3102 3110 3117 3123 3127 3132 3140 3145 3148 3151 3154 3158 3160 3163 3165 3168
3083 3084 3086 3087 3086 3086 3089 3087 3090 3087 3087 3087 3086 3085 3084 3083 3081 3079 3078 3077 3076 3076 3076 3075 3075 3077 3080 3081 3083 3086 3091 3093 3097 3101 3107 3114 3119 3123 3132 3138 3143 3146 3149 3152 3156 3157 3160 3163 3165
3081 3082 3082 3083 3082 3082 3084 3084 3086 3086 3084 3084 3083 3082 3081 3080 3080 3078 3076 3075 3075 3074 3073 3071 3071 3073 3075 3078 3082 3085 3088 3093 3096 3101 3105 3107 3118 3124 3128 3134 3140 3143 3147 3151 3154 3156 3158 3160 3162
3077 3078 3079 3081 3080 3078 3079 3080 3081 3082 3081 3081 3080 3080 3078 3077 3077 3077 3075 3074 3073 3072 3069 3066 3063 3067 3069 3076 3080 3084 3088 3091 3095 3100 3102 3107 3114 3121 3126 3131 3136 3140 3144 3146 3150 3153 3155 3157 3159
3070 3073 3075 3078 3077 3075 3075 3075 3076 3077 3076 3076 3076 3076 3075 3074 3073 3073 3073 3073 3072 3071 3069 3064 3060 3061 3068 3074 3079 3081 3083 3088 3092 3097 3101 3105 3111 3118 3122 3126 3131 3135 3139 3143 3147 3149 3151 3153 3155
3064 3069 3072 3075 3076 3072 3072 3068 3069 3071 3071 3071 3072 3071 3072 3071 3070 3070 3070 3070 3071 3070 3069 3065 3062 3061 3065 3072 3075 3080 3082 3086 3090 3094 3097 3102 3107 3113 3118 3122 3125 3131 3134 3137 3140 3143 3145 3147 3150
3062 3066 3067 3071 3071 3071 3070 3069 3063 3064 3064 3065 3065 3067 3067 3067 3067 3068 3068 3068 3069 3069 3068 3067 3064 3064 3065 3069 3074 3076 3078 3084 3085 3090 3094 3097 3103 3109 3114 3117 3120 3126 3129 3131 3134 3135 3139 3142 3143
3059 3062 3064 3067 3068 3064 3064 3064 3057 3058 3060 3060 3061 3063 3062 3062 3064 3065 3066 3065 3066 3067 3067 3066 3065 3065 3066 3068 3069 3071 3075 3078 3081 3085 3089 3095 3099 3102 3107 3108 3114 3119 3123 3126 3129 3133 3133 3135 3138
3056 3059 3059 3061 3059 3055 3057 3058 3055 3055 3056 3056 3057 3059 3058 3058 3059 3061 3063 3064 3064 3065 3065 3065 3065 3065 3065 3067 3068 3069 3070 3072 3077 3081 3086 3091 3093 3096 3100 3103 3107 3112 3115 3119 3121 3124 3127 3128 3131
3047 3051 3048 3049 3047 3047 3054 3052 3050 3051 3051 3051 3052 3053 3054 3054 3055 3057 3060 3061 3062 3063 3064 3064 3064 3065 3065 3066 3067 3069 3070 3070 3072 3076 3081 3084 3087 3091 3096 3099 3102 3107 3109 3111 3114 3117 3119 3121 3122
3044 3044 3049 3049 3050 3047 3045 3048 3046 3047 3049 3049 3050 3049 3049 3050 3051 3052 3055 3058 3059 3061 3062 3063 3063 3064 3064 3065 3066 3067 3068 3068 3070 3072 3075 3078 3082 3085 3089 3091 3095 3099 3103 3105 3107 3110 3111 3113 3115
3038 3040 3045 3046 3043 3043 3039 3044 3043 3044 3046 3046 3046 3045 3044 3045 3046 3049 3051 3053 3056 3058 3060 3060 3061 3062 3063 3063 3064 3066 3067 3068 3069 3071 3072 3074 3077 3080 3083 3085 3088 3093 3097 3098 3100 3101 3104 3105 3107
3034 3035 3037 3037 3040 3036 3036 3037 3041 3042 3044 3044 3045 3044 3042 3043 3044 3046 3048 3050 3052 3054 3056 3057 3058 3059 3060 3061 3063 3063 3064 3065 3066 3068 3070 3073 3076 3079 3080 3081 3083 3085 3088 3091 3092 3094 3097 3098 3099
3028 3030 3032 3033 3035 3038 3037 3036 3037 3038 3040 3041 3042 3042 3042 3042 3042 3044 3046 3047 3049 3050 3052 3053 3054 3055 3057 3058 3059 3060 3061 3062 3063 3065 3068 3070 3073 3076 3077 3079 3080 3081 3083 3085 3085 3087 3089 3089 3089